TimeEST,TemperatureF,Dew PointF,Humidity,Sea Level PressureIn,VisibilityMPH,Wind Direction,Wind SpeedMPH,Gust SpeedMPH,PrecipitationIn,Events,Conditions,WindDirDegrees,DateUTC
12:52 AM,28.9,17.1,61,29.92,10.0,SW,4.6,-,N/A,,Clear,230,2013-01-05 05:52:00
1:52 AM,30.0,17.1,59,29.95,10.0,WSW,5.8,-,N/A,,Clear,250,2013-01-05 06:52:00
2:52 AM,32.0,18.0,56,29.97,10.0,WSW,4.6,-,N/A,,Overcast,250,2013-01-05 07:52:00
3:52 AM,33.1,18.0,54,29.98,10.0,WSW,6.9,-,N/A,,Overcast,250,2013-01-05 08:52:00
4:52 AM,32.0,19.0,59,30.00,10.0,West,6.9,-,N/A,,Overcast,260,2013-01-05 09:52:00
5:52 AM,32.0,19.0,59,30.03,10.0,SW,3.5,-,N/A,,Overcast,220,2013-01-05 10:52:00
6:52 AM,33.1,19.9,59,30.06,10.0,WSW,4.6,-,N/A,,Overcast,240,2013-01-05 11:52:00
7:52 AM,34.0,21.0,59,30.11,10.0,SSW,5.8,-,N/A,,Overcast,210,2013-01-05 12:52:00
8:52 AM,35.1,21.9,59,30.15,10.0,SW,4.6,-,N/A,,Overcast,230,2013-01-05 13:52:00
9:52 AM,37.0,21.9,54,30.17,10.0,Variable,4.6,-,N/A,,Mostly Cloudy,0,2013-01-05 14:52:00
10:52 AM,39.9,21.0,47,30.19,10.0,NW,12.7,26.5,N/A,,Partly Cloudy,310,2013-01-05 15:52:00
11:52 AM,39.9,21.0,47,30.19,10.0,WNW,15.0,28.8,N/A,,Partly Cloudy,290,2013-01-05 16:52:00
12:52 PM,41.0,19.9,43,30.17,10.0,NW,18.4,28.8,N/A,,Clear,320,2013-01-05 17:52:00
1:52 PM,41.0,19.9,43,30.17,10.0,NW,9.2,19.6,N/A,,Clear,310,2013-01-05 18:52:00
2:52 PM,39.9,19.0,43,30.19,10.0,NNW,9.2,-,N/A,,Clear,330,2013-01-05 19:52:00
3:52 PM,39.0,19.0,45,30.22,10.0,Variable,4.6,-,N/A,,Clear,0,2013-01-05 20:52:00
4:52 PM,36.0,18.0,48,30.22,10.0,Calm,Calm,-,N/A,,Clear,0,2013-01-05 21:52:00
5:52 PM,28.9,19.9,69,30.25,10.0,Calm,Calm,-,N/A,,Clear,0,2013-01-05 22:52:00
6:52 PM,26.1,19.9,78,30.28,10.0,Calm,Calm,-,N/A,,Clear,0,2013-01-05 23:52:00
7:52 PM,25.0,19.0,78,30.27,10.0,Calm,Calm,-,N/A,,Clear,0,2013-01-06 00:52:00
8:52 PM,24.1,19.0,81,30.26,10.0,Calm,Calm,-,N/A,,Clear,0,2013-01-06 01:52:00
9:52 PM,19.0,16.0,88,30.26,10.0,Calm,Calm,-,N/A,,Clear,0,2013-01-06 02:52:00
10:52 PM,19.9,17.1,89,30.24,10.0,Calm,Calm,-,N/A,,Clear,0,2013-01-06 03:52:00
11:52 PM,21.9,18.0,85,30.21,10.0,Calm,Calm,-,N/A,,Clear,0,2013-01-06 04:52:00